APRIZESAT 2 1 28366U 04025A 24289.46538095 .00000769 00000-0 25463-3 0 9996 2 28366 98.0769 120.4513 0105291 291.3183 67.6791 14.37486619 64024 SAUDICOMSAT 1 1 28369U 04025D 24289.89039856 .00001560 00000-0 37556-3 0 9993 2 28369 98.5508 273.5488 0034170 89.1874 271.3237 14.54381900 75523 SAUDICOMSAT 2 1 28370U 04025E 24289.93078059 .00001530 00000-0 40790-3 0 9999 2 28370 98.6430 274.6685 0055282 305.2566 54.3461 14.49081647 71835 APRIZESAT 1 1 28372U 04025G 24289.90713378 .00001068 00000-0 27905-3 0 9997 2 28372 98.6057 273.8440 0044213 206.2359 153.6596 14.50992131 73525 NANOSAT(1) 1 28493U 04049B 24289.90428808 .00003669 00000-0 52291-3 0 9993 2 28493 98.1579 44.6316 0005150 91.8134 268.3666 14.77409282 65381 SAUDICOMSAT 7 1 31119U 07012C 24289.86061057 .00002606 00000-0 49114-3 0 9999 2 31119 98.2921 244.2682 0056162 307.2464 52.3622 14.64420519933193 SAUDICOMSAT 6 1 31121U 07012E 24289.81362278 .00002434 00000-0 48741-3 0 9990 2 31121 98.3234 238.7706 0075229 64.7840 296.1135 14.60944331931146 SAUDICOMSAT 5 1 31124U 07012H 24289.43163370 .00002503 00000-0 45535-3 0 9998 2 31124 98.2627 244.7719 0047431 243.4521 116.1816 14.66327227934168 SAUDICOMSAT 3 1 31125U 07012J 24289.91653322 .00002613 00000-0 45384-3 0 9997 2 31125 98.2296 245.9585 0040639 175.7791 184.3764 14.68527534935327 SAUDICOMSAT 4 1 31127U 07012L 24289.85834679 .00002768 00000-0 53532-3 0 9993 2 31127 98.3119 242.7745 0065512 3.6634 356.5034 14.62837137932236 APRIZESAT 4 1 35684U 09041D 24289.90519177 .00002508 00000-0 31757-3 0 9995 2 35684 98.2227 340.0584 0045802 132.7350 227.7731 14.82017435821052 APRIZESAT 3 1 35686U 09041F 24289.90058829 .00004427 00000-0 42119-3 0 9995 2 35686 98.1291 47.6355 0065266 276.4310 82.9479 14.92384278825369 AISSAT 1 1 36797U 10035C 24289.88246295 .00005635 00000-0 55382-3 0 9995 2 36797 98.1658 155.8918 0008397 272.3727 87.6530 14.92539633773163